Time,TemperatureF,DewpointF,PressureIn,WindDirection,WindDirectionDegrees,WindSpeedMPH,WindSpeedGustMPH,Humidity,HourlyPrecipIn,Conditions,Clouds,dailyrainin,SolarRadiationWatts/m^2,SoftwareType,DateUTC
2013-06-16 00:07:00,51.1,42.8,29.84,WNW,295,0.0,2.0,73,0.00,CLR,FEW,0.00,0.0,WeatherDisplay:10.37,2013-06-16 04:07:00,
2013-06-16 00:17:00,51.3,43.3,29.84,West,269,0.0,7.0,74,0.00,CLR,FEW,0.00,0.0,WeatherDisplay:10.37,2013-06-16 04:17:00,
2013-06-16 00:22:00,51.3,43.3,29.84,WSW,237,0.0,1.0,74,0.00,CLR,FEW,0.00,0.0,WeatherDisplay:10.37,2013-06-16 04:22:00,
2013-06-16 00:27:00,51.3,43.3,29.84,South,191,0.0,1.0,74,0.00,CLR,FEW,0.00,0.0,WeatherDisplay:10.37,2013-06-16 04:27:00,
2013-06-16 00:32:00,51.4,43.0,29.84,SSW,198,0.0,2.0,73,0.00,CLR,FEW,0.00,0.0,WeatherDisplay:10.37,2013-06-16 04:32:00,
2013-06-16 00:37:00,51.4,43.4,29.84,SSW,212,0.0,3.0,74,0.00,CLR,FEW,0.00,0.0,WeatherDisplay:10.37,2013-06-16 04:37:00,
2013-06-16 00:42:00,51.4,43.0,29.84,SW,233,0.0,1.0,73,0.00,CLR,FEW,0.00,0.0,WeatherDisplay:10.37,2013-06-16 04:42:00,
2013-06-16 00:47:00,51.2,43.2,29.83,SW,234,0.0,1.0,74,0.00,CLR,FEW,0.00,0.0,WeatherDisplay:10.37,2013-06-16 04:47:00,
2013-06-16 00:52:00,51.0,43.0,29.83,SW,234,0.0,2.0,74,0.00,CLR,FEW,0.00,0.0,WeatherDisplay:10.37,2013-06-16 04:52:00,
2013-06-16 00:57:00,50.9,43.3,29.83,SW,235,0.0,1.0,75,0.00,CLR,FEW,0.00,0.0,WeatherDisplay:10.37,2013-06-16 04:57:00,
2013-06-16 01:07:00,50.9,43.6,29.83,West,279,0.0,6.0,76,0.00,CLR,FEW,0.00,0.0,WeatherDisplay:10.37,2013-06-16 05:07:00,
2013-06-16 01:17:00,51.1,43.4,29.83,West,271,0.0,3.0,75,0.00,CLR,FEW,0.00,0.0,WeatherDisplay:10.37,2013-06-16 05:17:00,
2013-06-16 01:22:00,51.4,43.4,29.83,WNW,297,0.0,3.0,74,0.00,CLR,FEW,0.00,0.0,WeatherDisplay:10.37,2013-06-16 05:22:00,
2013-06-16 01:27:00,51.5,43.5,29.83,NW,307,0.0,0.0,74,0.00,CLR,FEW,0.00,0.0,WeatherDisplay:10.37,2013-06-16 05:27:00,
2013-06-16 01:32:00,51.5,43.5,29.83,WNW,298,0.0,2.0,74,0.00,CLR,FEW,0.00,0.0,WeatherDisplay:10.37,2013-06-16 05:32:00,
2013-06-16 01:37:00,51.4,43.4,29.83,WNW,291,0.0,0.0,74,0.00,CLR,FEW,0.00,0.0,WeatherDisplay:10.37,2013-06-16 05:37:00,
2013-06-16 01:42:00,51.2,43.2,29.83,WNW,290,0.0,1.0,74,0.00,CLR,FEW,0.00,0.0,WeatherDisplay:10.37,2013-06-16 05:42:00,
2013-06-16 01:47:00,51.1,43.1,29.83,West,279,0.0,2.0,74,0.00,CLR,FEW,0.00,0.0,WeatherDisplay:10.37,2013-06-16 05:47:00,
2013-06-16 01:52:00,51.1,43.1,29.83,WSW,250,0.0,3.0,74,0.00,CLR,FEW,0.00,0.0,WeatherDisplay:10.37,2013-06-16 05:52:00,
2013-06-16 01:57:00,51.2,43.5,29.84,WSW,248,0.0,1.0,75,0.00,CLR,FEW,0.00,0.0,WeatherDisplay:10.37,2013-06-16 05:57:00,
2013-06-16 02:07:00,51.1,43.4,29.84,WSW,255,0.0,2.0,75,0.00,CLR,FEW,0.00,0.0,WeatherDisplay:10.37,2013-06-16 06:07:00,
2013-06-16 02:17:00,51.0,43.4,29.83,West,262,0.0,1.0,75,0.00,CLR,FEW,0.00,0.0,WeatherDisplay:10.37,2013-06-16 06:17:00,
2013-06-16 02:22:00,50.9,43.3,29.83,West,261,0.0,1.0,75,0.00,CLR,FEW,0.00,0.0,WeatherDisplay:10.37,2013-06-16 06:22:00,
2013-06-16 02:27:00,50.9,43.6,29.84,West,261,0.0,1.0,76,0.00,CLR,FEW,0.00,0.0,WeatherDisplay:10.37,2013-06-16 06:27:00,
2013-06-16 02:32:00,50.9,43.6,29.83,West,261,0.0,0.0,76,0.00,CLR,FEW,0.00,0.0,WeatherDisplay:10.37,2013-06-16 06:32:00,
2013-06-16 02:37:00,50.9,43.6,29.84,West,261,0.0,0.0,76,0.00,CLR,FEW,0.00,0.0,WeatherDisplay:10.37,2013-06-16 06:37:00,
2013-06-16 02:42:00,50.9,43.6,29.83,West,261,0.0,0.0,76,0.00,CLR,FEW,0.00,0.0,WeatherDisplay:10.37,2013-06-16 06:42:00,
2013-06-16 02:47:00,50.8,43.5,29.83,West,261,0.0,1.0,76,0.00,CLR,FEW,0.00,0.0,WeatherDisplay:10.37,2013-06-16 06:47:00,
2013-06-16 02:52:00,50.7,43.8,29.83,West,261,0.0,0.0,77,0.00,CLR,FEW,0.00,0.0,WeatherDisplay:10.37,2013-06-16 06:52:00,
2013-06-16 02:57:00,50.7,43.4,29.83,West,261,0.0,0.0,76,0.00,CLR,FEW,0.00,0.0,WeatherDisplay:10.37,2013-06-16 06:57:00,
2013-06-16 03:07:00,50.5,43.6,29.83,West,261,0.0,0.0,77,0.00,CLR,FEW,0.00,0.0,WeatherDisplay:10.37,2013-06-16 07:07:00,
2013-06-16 03:17:00,50.0,43.7,29.83,West,261,0.0,0.0,79,0.00,CLR,FEW,0.00,0.0,WeatherDisplay:10.37,2013-06-16 07:17:00,
2013-06-16 03:22:00,49.6,43.3,29.82,West,261,0.0,0.0,79,0.00,CLR,FEW,0.00,0.0,WeatherDisplay:10.37,2013-06-16 07:22:00,
2013-06-16 03:27:00,49.1,43.2,29.83,West,261,0.0,0.0,80,0.00,CLR,FEW,0.00,0.0,WeatherDisplay:10.37,2013-06-16 07:27:00,
2013-06-16 03:32:00,48.7,43.8,29.83,West,261,0.0,0.0,83,0.00,CLR,FEW,0.00,0.0,WeatherDisplay:10.37,2013-06-16 07:32:00,
2013-06-16 03:37:00,48.4,44.1,29.83,West,261,0.0,0.0,85,0.00,CLR,FEW,0.00,0.0,WeatherDisplay:10.37,2013-06-16 07:37:00,
2013-06-16 03:42:00,48.2,43.9,29.83,West,261,0.0,0.0,85,0.00,CLR,FEW,0.00,0.0,WeatherDisplay:10.37,2013-06-16 07:42:00,
2013-06-16 03:47:00,48.0,44.0,29.83,West,261,0.0,0.0,86,0.00,CLR,FEW,0.00,0.0,WeatherDisplay:10.37,2013-06-16 07:47:00,
2013-06-16 03:52:00,47.7,43.7,29.83,West,261,0.0,0.0,86,0.00,CLR,FEW,0.00,0.0,WeatherDisplay:10.37,2013-06-16 07:52:00,
2013-06-16 03:57:00,47.5,43.5,29.83,West,261,0.0,0.0,86,0.00,CLR,FEW,0.00,0.0,WeatherDisplay:10.37,2013-06-16 07:57:00,
2013-06-16 04:07:00,47.0,43.0,29.83,West,261,0.0,1.0,86,0.00,CLR,FEW,0.00,0.0,WeatherDisplay:10.37,2013-06-16 08:07:00,
2013-06-16 04:17:00,47.0,43.0,29.83,West,261,0.0,0.0,86,0.00,CLR,FEW,0.00,0.0,WeatherDisplay:10.37,2013-06-16 08:17:00,
2013-06-16 04:22:00,46.9,42.9,29.83,West,261,0.0,1.0,86,0.00,CLR,FEW,0.00,0.0,WeatherDisplay:10.37,2013-06-16 08:22:00,
2013-06-16 04:27:00,46.8,42.8,29.83,West,261,0.0,1.0,86,0.00,CLR,FEW,0.00,0.0,WeatherDisplay:10.37,2013-06-16 08:27:00,
2013-06-16 04:32:00,46.9,42.9,29.84,West,261,0.0,1.0,86,0.00,CLR,FEW,0.00,0.0,WeatherDisplay:10.37,2013-06-16 08:32:00,
2013-06-16 04:37:00,46.9,42.9,29.84,West,261,0.0,0.0,86,0.00,CLR,FEW,0.00,0.0,WeatherDisplay:10.37,2013-06-16 08:37:00,
2013-06-16 04:42:00,47.1,42.9,29.84,West,261,0.0,1.0,85,0.00,CLR,FEW,0.00,0.0,WeatherDisplay:10.37,2013-06-16 08:42:00,
2013-06-16 04:47:00,47.2,42.9,29.84,West,261,0.0,1.0,85,0.00,CLR,FEW,0.00,0.0,WeatherDisplay:10.37,2013-06-16 08:47:00,
2013-06-16 04:52:00,47.2,42.9,29.84,West,261,0.0,0.0,85,0.00,CLR,FEW,0.00,0.0,WeatherDisplay:10.37,2013-06-16 08:52:00,
2013-06-16 04:57:00,47.3,43.0,29.84,West,261,0.0,1.0,85,0.00,CLR,FEW,0.00,0.0,WeatherDisplay:10.37,2013-06-16 08:57:00,
2013-06-16 05:07:00,47.4,43.1,29.84,West,261,0.0,1.0,85,0.00,CLR,FEW,0.00,5.0,WeatherDisplay:10.37,2013-06-16 09:07:00,
2013-06-16 05:17:00,47.6,43.3,29.85,West,261,0.0,1.0,85,0.00,CLR,FEW,0.00,11.0,WeatherDisplay:10.37,2013-06-16 09:17:00,
2013-06-16 05:22:00,47.6,43.3,29.85,West,261,0.0,0.0,85,0.00,CLR,FEW,0.00,12.0,WeatherDisplay:10.37,2013-06-16 09:22:00,
2013-06-16 05:27:00,47.5,43.2,29.85,West,261,0.0,0.0,85,0.00,CLR,FEW,0.00,16.0,WeatherDisplay:10.37,2013-06-16 09:27:00,
2013-06-16 05:32:00,47.2,42.9,29.85,West,261,0.0,0.0,85,0.00,CLR,FEW,0.00,19.0,WeatherDisplay:10.37,2013-06-16 09:32:00,
2013-06-16 05:37:00,47.0,43.6,29.85,West,261,0.0,0.0,88,0.00,CLR,FEW,0.00,23.0,WeatherDisplay:10.37,2013-06-16 09:37:00,
2013-06-16 05:42:00,46.8,43.7,29.85,West,261,0.0,0.0,89,0.00,CLR,FEW,0.00,26.0,WeatherDisplay:10.37,2013-06-16 09:42:00,
2013-06-16 05:47:00,46.7,43.6,29.86,West,261,0.0,0.0,89,0.00,CLR,FEW,0.00,35.0,WeatherDisplay:10.37,2013-06-16 09:47:00,
2013-06-16 05:52:00,46.6,43.5,29.85,West,261,0.0,0.0,89,0.00,CLR,FEW,0.00,44.0,WeatherDisplay:10.37,2013-06-16 09:52:00,
2013-06-16 05:57:00,46.6,43.5,29.85,West,261,0.0,0.0,89,0.00,CLR,FEW,0.00,47.0,WeatherDisplay:10.37,2013-06-16 09:57:00,
2013-06-16 06:07:00,46.8,44.0,29.85,West,261,0.0,0.0,90,0.00,CLR,FEW,0.00,37.0,WeatherDisplay:10.37,2013-06-16 10:07:00,
2013-06-16 06:17:00,47.1,44.6,29.85,West,261,0.0,0.0,91,0.00,CLR,FEW,0.00,33.0,WeatherDisplay:10.37,2013-06-16 10:17:00,
2013-06-16 06:22:00,47.2,44.7,29.85,West,261,0.0,0.0,91,0.00,CLR,FEW,0.00,33.0,WeatherDisplay:10.37,2013-06-16 10:22:00,
2013-06-16 06:27:00,47.2,45.0,29.85,West,261,0.0,0.0,92,0.00,CLR,FEW,0.00,42.0,WeatherDisplay:10.37,2013-06-16 10:27:00,
2013-06-16 06:32:00,47.2,44.7,29.85,West,261,0.0,0.0,91,0.00,CLR,FEW,0.00,47.0,WeatherDisplay:10.37,2013-06-16 10:32:00,
2013-06-16 06:37:00,47.3,44.8,29.84,West,261,0.0,0.0,91,0.00,CLR,FEW,0.00,49.0,WeatherDisplay:10.37,2013-06-16 10:37:00,
2013-06-16 06:42:00,47.5,45.0,29.85,West,261,0.0,0.0,91,0.00,CLR,FEW,0.00,63.0,WeatherDisplay:10.37,2013-06-16 10:42:00,
2013-06-16 06:47:00,47.8,45.0,29.84,West,261,0.0,0.0,90,0.00,CLR,FEW,0.00,86.0,WeatherDisplay:10.37,2013-06-16 10:47:00,
2013-06-16 06:52:00,48.3,44.9,29.85,West,261,0.0,0.0,88,0.00,CLR,FEW,0.00,139.0,WeatherDisplay:10.37,2013-06-16 10:52:00,
2013-06-16 06:57:00,48.9,44.9,29.84,West,261,0.0,0.0,86,0.00,CLR,FEW,0.00,176.0,WeatherDisplay:10.37,2013-06-16 10:57:00,
2013-06-16 07:07:00,50.4,45.8,29.85,West,261,0.0,0.0,84,0.00,CLR,FEW,0.00,165.0,WeatherDisplay:10.37,2013-06-16 11:07:00,
2013-06-16 07:17:00,51.7,46.7,29.85,West,261,0.0,0.0,83,0.00,CLR,FEW,0.00,221.0,WeatherDisplay:10.37,2013-06-16 11:17:00,
2013-06-16 07:22:00,52.3,46.4,29.85,West,261,0.0,0.0,80,0.00,CLR,FEW,0.00,279.0,WeatherDisplay:10.37,2013-06-16 11:22:00,
2013-06-16 07:27:00,53.2,45.8,29.85,West,261,0.0,1.0,76,0.00,CLR,FEW,0.00,327.0,WeatherDisplay:10.37,2013-06-16 11:27:00,
2013-06-16 07:32:00,54.3,45.8,29.85,West,261,0.0,1.0,73,0.00,CLR,FEW,0.00,353.0,WeatherDisplay:10.37,2013-06-16 11:32:00,
2013-06-16 07:37:00,55.1,46.6,29.85,WSW,250,0.0,2.0,73,0.00,CLR,FEW,0.00,367.0,WeatherDisplay:10.37,2013-06-16 11:37:00,
2013-06-16 07:42:00,55.9,46.6,29.85,SE,142,1.0,3.0,71,0.00,CLR,FEW,0.00,285.0,WeatherDisplay:10.37,2013-06-16 11:42:00,
2013-06-16 07:47:00,56.2,47.3,29.85,SE,132,0.0,2.0,72,0.00,CLR,FEW,0.00,366.0,WeatherDisplay:10.37,2013-06-16 11:47:00,
2013-06-16 07:52:00,56.5,47.9,29.85,SE,131,0.0,2.0,73,0.00,CLR,FEW,0.00,355.0,WeatherDisplay:10.37,2013-06-16 11:52:00,
2013-06-16 07:57:00,56.7,47.0,29.84,SE,125,1.0,3.0,70,0.00,CLR,FEW,0.00,418.0,WeatherDisplay:10.37,2013-06-16 11:57:00,
2013-06-16 08:07:00,57.5,47.4,29.84,ESE,121,1.0,4.0,69,0.00,CLR,FEW,0.00,452.0,WeatherDisplay:10.37,2013-06-16 12:07:00,
2013-06-16 08:17:00,58.0,47.5,29.84,SE,128,1.0,3.0,68,0.00,CLR,FEW,0.00,482.0,WeatherDisplay:10.37,2013-06-16 12:17:00,
2013-06-16 08:22:00,58.2,48.1,29.84,SE,131,2.0,4.0,69,0.00,CLR,FEW,0.00,497.0,WeatherDisplay:10.37,2013-06-16 12:22:00,
2013-06-16 08:27:00,58.7,48.1,29.83,SE,127,1.0,4.0,68,0.00,CLR,FEW,0.00,517.0,WeatherDisplay:10.37,2013-06-16 12:27:00,
2013-06-16 08:32:00,59.3,48.7,29.84,ESE,117,1.0,5.0,68,0.00,CLR,FEW,0.00,536.0,WeatherDisplay:10.37,2013-06-16 12:32:00,
2013-06-16 08:37:00,59.7,48.3,29.83,ESE,120,1.0,3.0,66,0.00,CLR,FEW,0.00,573.0,WeatherDisplay:10.37,2013-06-16 12:37:00,
2013-06-16 08:42:00,60.1,48.7,29.83,ESE,123,0.0,3.0,66,0.00,CLR,FEW,0.00,587.0,WeatherDisplay:10.37,2013-06-16 12:42:00,
2013-06-16 08:47:00,60.4,48.2,29.83,SSE,158,2.0,6.0,64,0.00,CLR,FEW,0.00,599.0,WeatherDisplay:10.37,2013-06-16 12:47:00,
2013-06-16 08:52:00,60.9,48.6,29.83,SSE,153,2.0,5.0,64,0.00,CLR,FEW,0.00,605.0,WeatherDisplay:10.37,2013-06-16 12:52:00,
2013-06-16 08:57:00,61.3,49.0,29.83,SE,127,0.0,5.0,64,0.00,CLR,FEW,0.00,615.0,WeatherDisplay:10.37,2013-06-16 12:57:00,
2013-06-16 09:07:00,62.1,47.1,29.81,SSE,163,0.0,7.0,58,0.00,CLR,FEW,0.00,640.0,WeatherDisplay:10.37,2013-06-16 13:07:00,
2013-06-16 09:17:00,62.7,46.8,29.81,South,191,3.0,6.0,56,0.00,CLR,FEW,0.00,668.0,WeatherDisplay:10.37,2013-06-16 13:17:00,
2013-06-16 09:22:00,63.1,46.7,29.81,SW,217,1.0,3.0,55,0.00,CLR,FEW,0.00,684.0,WeatherDisplay:10.37,2013-06-16 13:22:00,
2013-06-16 09:27:00,63.3,46.9,29.81,SSW,198,2.0,5.0,55,0.00,CLR,FEW,0.00,694.0,WeatherDisplay:10.37,2013-06-16 13:27:00,
2013-06-16 09:32:00,63.4,46.0,29.81,SSE,164,5.0,7.0,53,0.00,CLR,FEW,0.00,712.0,WeatherDisplay:10.37,2013-06-16 13:32:00,
2013-06-16 09:37:00,63.5,47.0,29.80,SSE,167,2.0,5.0,55,0.00,CLR,FEW,0.00,728.0,WeatherDisplay:10.37,2013-06-16 13:37:00,
2013-06-16 09:42:00,63.9,46.4,29.80,South,171,3.0,6.0,53,0.00,CLR,FEW,0.00,744.0,WeatherDisplay:10.37,2013-06-16 13:42:00,
2013-06-16 09:47:00,64.0,47.5,29.79,South,172,2.0,5.0,55,0.00,CLR,FEW,0.00,758.0,WeatherDisplay:10.37,2013-06-16 13:47:00,
2013-06-16 09:52:00,64.4,47.4,29.79,South,184,2.0,6.0,54,0.00,CLR,FEW,0.00,772.0,WeatherDisplay:10.37,2013-06-16 13:52:00,
2013-06-16 09:57:00,64.6,45.5,29.79,South,175,2.0,9.0,50,0.00,CLR,FEW,0.00,789.0,WeatherDisplay:10.37,2013-06-16 13:57:00,
2013-06-16 10:07:00,64.6,47.1,29.79,South,173,2.0,10.0,53,0.00,OVC,FEW,0.00,812.0,WeatherDisplay:10.37,2013-06-16 14:07:00,
2013-06-16 10:17:00,65.9,47.2,29.79,SSW,206,3.0,9.0,51,0.00,OVC,FEW,0.00,847.0,WeatherDisplay:10.37,2013-06-16 14:17:00,
2013-06-16 10:22:00,66.2,47.0,29.79,South,179,3.0,10.0,50,0.00,OVC,FEW,0.00,882.0,WeatherDisplay:10.37,2013-06-16 14:22:00,
2013-06-16 10:27:00,66.1,47.4,29.78,South,179,5.0,12.0,51,0.00,OVC,FEW,0.00,1000.0,WeatherDisplay:10.37,2013-06-16 14:27:00,
2013-06-16 10:32:00,66.7,48.0,29.78,South,184,2.0,9.0,51,0.00,OVC,FEW,0.00,800.0,WeatherDisplay:10.37,2013-06-16 14:32:00,
2013-06-16 10:37:00,66.7,48.0,29.78,South,185,3.0,10.0,51,0.00,OVC,FEW,0.00,599.0,WeatherDisplay:10.37,2013-06-16 14:37:00,
2013-06-16 10:42:00,66.7,47.5,29.78,South,190,5.0,10.0,50,0.00,OVC,FEW,0.00,643.0,WeatherDisplay:10.37,2013-06-16 14:42:00,
2013-06-16 10:47:00,66.5,47.3,29.77,South,185,6.0,12.0,50,0.00,OVC,FEW,0.00,921.0,WeatherDisplay:10.37,2013-06-16 14:47:00,
2013-06-16 10:52:00,66.7,49.5,29.77,SSW,193,3.0,7.0,54,0.00,OVC,FEW,0.00,782.0,WeatherDisplay:10.37,2013-06-16 14:52:00,
2013-06-16 10:57:00,67.0,48.3,29.77,SSW,197,2.0,10.0,51,0.00,OVC,FEW,0.00,552.0,WeatherDisplay:10.37,2013-06-16 14:57:00,
2013-06-16 11:07:00,66.4,47.7,29.77,SSE,167,2.0,9.0,51,0.00,OVC,FEW,0.00,503.0,WeatherDisplay:10.37,2013-06-16 15:07:00,
2013-06-16 11:17:00,66.2,48.6,29.77,South,170,1.0,9.0,53,0.00,OVC,FEW,0.00,424.0,WeatherDisplay:10.37,2013-06-16 15:17:00,
2013-06-16 11:22:00,66.5,49.3,29.77,South,170,1.0,6.0,54,0.00,OVC,FEW,0.00,345.0,WeatherDisplay:10.37,2013-06-16 15:22:00,
2013-06-16 11:27:00,66.4,48.7,29.77,South,181,3.0,9.0,53,0.00,OVC,FEW,0.00,403.0,WeatherDisplay:10.37,2013-06-16 15:27:00,
2013-06-16 11:32:00,66.1,48.5,29.77,South,174,2.0,6.0,53,0.00,OVC,FEW,0.00,408.0,WeatherDisplay:10.37,2013-06-16 15:32:00,
2013-06-16 11:37:00,66.0,48.4,29.77,South,176,5.0,10.0,53,0.00,OVC,FEW,0.00,341.0,WeatherDisplay:10.37,2013-06-16 15:37:00,
2013-06-16 11:42:00,65.8,48.7,29.76,SSW,197,1.0,7.0,54,0.00,OVC,FEW,0.00,357.0,WeatherDisplay:10.37,2013-06-16 15:42:00,
2013-06-16 11:47:00,65.7,48.1,29.76,South,188,2.0,7.0,53,0.00,OVC,FEW,0.00,366.0,WeatherDisplay:10.37,2013-06-16 15:47:00,
2013-06-16 11:52:00,65.8,48.6,29.76,SSW,196,2.0,5.0,54,0.00,OVC,FEW,0.00,302.0,WeatherDisplay:10.37,2013-06-16 15:52:00,
2013-06-16 11:57:00,65.5,48.0,29.75,SSW,192,2.0,6.0,53,0.00,OVC,FEW,0.00,315.0,WeatherDisplay:10.37,2013-06-16 15:57:00,
2013-06-16 12:07:00,65.0,48.0,29.75,South,191,7.0,10.0,54,0.00,OVC,FEW,0.00,309.0,WeatherDisplay:10.37,2013-06-16 16:07:00,
2013-06-16 12:17:00,64.6,48.5,29.75,South,183,5.0,10.0,56,0.00,OVC,FEW,0.00,283.0,WeatherDisplay:10.37,2013-06-16 16:17:00,
2013-06-16 12:22:00,64.3,48.3,29.74,South,174,2.0,12.0,56,0.00,OVC,FEW,0.00,255.0,WeatherDisplay:10.37,2013-06-16 16:22:00,
2013-06-16 12:27:00,64.3,48.3,29.74,South,174,3.0,7.0,56,0.00,OVC,FEW,0.00,262.0,WeatherDisplay:10.37,2013-06-16 16:27:00,
2013-06-16 12:32:00,64.1,48.1,29.74,South,176,2.0,9.0,56,0.00,OVC,FEW,0.00,209.0,WeatherDisplay:10.37,2013-06-16 16:32:00,
2013-06-16 12:37:00,64.0,47.9,29.74,South,176,3.0,5.0,56,0.00,OVC,FEW,0.00,158.0,WeatherDisplay:10.37,2013-06-16 16:37:00,
2013-06-16 12:42:00,63.8,48.3,29.74,South,183,2.0,6.0,57,0.00,OVC,FEW,0.00,125.0,WeatherDisplay:10.37,2013-06-16 16:42:00,
2013-06-16 12:47:00,63.7,48.2,29.73,SSW,192,1.0,7.0,57,0.00,OVC,FEW,0.00,120.0,WeatherDisplay:10.37,2013-06-16 16:47:00,
2013-06-16 12:52:00,63.6,49.0,29.73,SSW,194,1.0,3.0,59,0.00,OVC,FEW,0.00,135.0,WeatherDisplay:10.37,2013-06-16 16:52:00,
2013-06-16 12:57:00,63.5,49.3,29.73,South,186,1.0,5.0,60,0.00,OVC,FEW,0.00,144.0,WeatherDisplay:10.37,2013-06-16 16:57:00,
2013-06-16 13:07:00,63.1,49.4,29.73,South,179,5.0,7.0,61,0.00,BKN,FEW,0.00,155.0,WeatherDisplay:10.37,2013-06-16 17:07:00,
2013-06-16 13:17:00,62.7,49.1,29.73,South,175,2.0,7.0,61,0.00,BKN,FEW,0.00,223.0,WeatherDisplay:10.37,2013-06-16 17:17:00,
2013-06-16 13:22:00,62.6,49.0,29.73,South,174,3.0,7.0,61,0.00,BKN,FEW,0.00,211.0,WeatherDisplay:10.37,2013-06-16 17:22:00,
2013-06-16 13:27:00,62.6,48.9,29.72,South,179,5.0,7.0,61,0.00,BKN,FEW,0.00,200.0,WeatherDisplay:10.37,2013-06-16 17:27:00,
2013-06-16 13:32:00,62.6,49.4,29.72,South,184,1.0,4.0,62,0.00,BKN,FEW,0.00,148.0,WeatherDisplay:10.37,2013-06-16 17:32:00,
2013-06-16 13:37:00,62.6,49.8,29.72,South,184,1.0,4.0,63,0.00,BKN,FEW,0.00,257.0,WeatherDisplay:10.37,2013-06-16 17:37:00,
2013-06-16 13:42:00,62.6,50.3,29.71,South,182,0.0,4.0,64,0.00,BKN,FEW,0.00,385.0,WeatherDisplay:10.37,2013-06-16 17:42:00,
2013-06-16 13:47:00,62.9,50.1,29.71,South,176,3.0,7.0,63,0.00,BKN,FEW,0.00,455.0,WeatherDisplay:10.37,2013-06-16 17:47:00,
2013-06-16 13:52:00,63.4,51.4,29.70,South,176,1.0,5.0,65,0.00,BKN,FEW,0.00,545.0,WeatherDisplay:10.37,2013-06-16 17:52:00,
2013-06-16 13:57:00,63.9,50.7,29.70,SSE,163,2.0,5.0,62,0.00,BKN,FEW,0.00,387.0,WeatherDisplay:10.37,2013-06-16 17:57:00,
2013-06-16 14:07:00,64.2,50.9,29.69,South,174,5.0,13.0,62,0.00,OVC,FEW,0.00,216.0,WeatherDisplay:10.37,2013-06-16 18:07:00,
2013-06-16 14:17:00,63.5,51.1,29.69,South,169,1.0,9.0,64,0.00,OVC,FEW,0.00,69.0,WeatherDisplay:10.37,2013-06-16 18:17:00,
2013-06-16 14:22:00,63.3,51.3,29.70,South,186,1.0,3.0,65,0.00,OVC,FEW,0.00,86.0,WeatherDisplay:10.37,2013-06-16 18:22:00,
2013-06-16 14:27:00,63.0,51.5,29.70,SW,217,0.0,3.0,66,0.00,OVC,FEW,0.00,120.0,WeatherDisplay:10.37,2013-06-16 18:27:00,
2013-06-16 14:32:00,62.7,51.1,29.71,SSW,194,5.0,10.0,66,0.00,OVC,FEW,0.00,116.0,WeatherDisplay:10.37,2013-06-16 18:32:00,
2013-06-16 14:37:00,61.9,52.8,29.71,South,189,1.0,4.0,72,0.00,OVC,FEW,0.00,100.0,WeatherDisplay:10.37,2013-06-16 18:37:00,
2013-06-16 14:42:00,61.1,53.5,29.71,SSW,211,2.0,7.0,76,0.01,RA,FEW,0.01,121.0,WeatherDisplay:10.37,2013-06-16 18:42:00,
2013-06-16 14:47:00,60.5,53.9,29.71,SW,231,0.0,3.0,79,0.01,RA,FEW,0.02,111.0,WeatherDisplay:10.37,2013-06-16 18:47:00,
2013-06-16 14:52:00,59.6,54.5,29.72,WSW,258,0.0,3.0,83,0.00,RA,FEW,0.02,91.0,WeatherDisplay:10.37,2013-06-16 18:52:00,
2013-06-16 14:57:00,58.8,53.9,29.72,WNW,282,1.0,3.0,84,0.01,RA,FEW,0.03,84.0,WeatherDisplay:10.37,2013-06-16 18:57:00,
2013-06-16 15:07:00,57.5,54.0,29.72,South,178,0.0,4.0,88,0.01,-RA,FEW,0.04,62.0,WeatherDisplay:10.37,2013-06-16 19:07:00,
2013-06-16 15:17:00,56.7,53.8,29.72,South,191,0.0,3.0,90,0.02,-RA,FEW,0.06,70.0,WeatherDisplay:10.37,2013-06-16 19:17:00,
2013-06-16 15:22:00,56.6,54.3,29.72,SSW,195,0.0,1.0,92,0.02,-RA,FEW,0.08,72.0,WeatherDisplay:10.37,2013-06-16 19:22:00,
2013-06-16 15:27:00,56.4,54.1,29.72,SSW,195,0.0,1.0,92,0.02,-RA,FEW,0.10,65.0,WeatherDisplay:10.37,2013-06-16 19:27:00,
2013-06-16 15:32:00,56.2,53.9,29.72,SSW,195,0.0,1.0,92,0.01,-RA,FEW,0.11,62.0,WeatherDisplay:10.37,2013-06-16 19:32:00,
2013-06-16 15:37:00,56.0,54.0,29.72,SSW,196,0.0,0.0,93,0.01,-RA,FEW,0.12,47.0,WeatherDisplay:10.37,2013-06-16 19:37:00,
2013-06-16 15:42:00,55.8,54.1,29.72,SSW,195,0.0,0.0,94,0.02,-RA,FEW,0.14,62.0,WeatherDisplay:10.37,2013-06-16 19:42:00,
2013-06-16 15:47:00,55.6,53.6,29.71,SSW,195,0.0,1.0,93,0.01,-RA,FEW,0.15,53.0,WeatherDisplay:10.37,2013-06-16 19:47:00,
2013-06-16 15:52:00,55.4,53.7,29.72,SSW,195,0.0,1.0,94,0.01,-RA,FEW,0.16,35.0,WeatherDisplay:10.37,2013-06-16 19:52:00,
2013-06-16 15:57:00,55.3,53.6,29.72,SSW,195,0.0,2.0,94,0.01,-RA,FEW,0.17,32.0,WeatherDisplay:10.37,2013-06-16 19:57:00,
2013-06-16 16:07:00,54.5,52.8,29.72,South,183,2.0,5.0,94,0.04,-RA,FEW,0.21,37.0,WeatherDisplay:10.37,2013-06-16 20:07:00,
2013-06-16 16:17:00,53.8,52.1,29.72,South,179,0.0,5.0,94,0.05,-RA,FEW,0.26,35.0,WeatherDisplay:10.37,2013-06-16 20:17:00,
2013-06-16 16:22:00,53.5,52.1,29.72,South,178,0.0,5.0,95,0.02,-RA,FEW,0.28,44.0,WeatherDisplay:10.37,2013-06-16 20:22:00,
2013-06-16 16:27:00,53.4,52.0,29.72,South,178,0.0,3.0,95,0.01,-RA,FEW,0.29,44.0,WeatherDisplay:10.37,2013-06-16 20:27:00,
2013-06-16 16:32:00,53.3,51.9,29.72,South,179,1.0,3.0,95,0.01,-RA,FEW,0.30,65.0,WeatherDisplay:10.37,2013-06-16 20:32:00,
2013-06-16 16:37:00,53.1,51.7,29.71,South,179,0.0,1.0,95,0.02,-RA,FEW,0.32,62.0,WeatherDisplay:10.37,2013-06-16 20:37:00,
2013-06-16 16:42:00,52.9,51.5,29.71,South,180,1.0,4.0,95,0.01,-RA,FEW,0.33,46.0,WeatherDisplay:10.37,2013-06-16 20:42:00,
2013-06-16 16:47:00,52.7,51.3,29.71,South,180,2.0,3.0,95,0.01,RA,FEW,0.34,49.0,WeatherDisplay:10.37,2013-06-16 20:47:00,
2013-06-16 16:52:00,52.5,51.1,29.70,South,180,1.0,4.0,95,0.01,RA,FEW,0.35,67.0,WeatherDisplay:10.37,2013-06-16 20:52:00,
2013-06-16 16:57:00,52.4,51.0,29.69,South,179,0.0,3.0,95,0.01,RA,FEW,0.36,70.0,WeatherDisplay:10.37,2013-06-16 20:57:00,
2013-06-16 17:07:00,52.5,51.4,29.68,ESE,111,2.0,5.0,96,0.02,RA,FEW,0.38,125.0,WeatherDisplay:10.37,2013-06-16 21:07:00,
2013-06-16 17:17:00,52.5,51.4,29.68,SE,132,1.0,5.0,96,0.00,OVC,FEW,0.38,95.0,WeatherDisplay:10.37,2013-06-16 21:17:00,
2013-06-16 17:22:00,52.5,51.4,29.68,SE,134,0.0,4.0,96,0.01,RA,FEW,0.39,102.0,WeatherDisplay:10.37,2013-06-16 21:22:00,
2013-06-16 17:27:00,52.4,51.3,29.68,SE,133,0.0,4.0,96,0.00,RA,FEW,0.39,109.0,WeatherDisplay:10.37,2013-06-16 21:27:00,
2013-06-16 17:32:00,52.6,51.5,29.68,SE,134,0.0,1.0,96,0.00,-RA,FEW,0.39,77.0,WeatherDisplay:10.37,2013-06-16 21:32:00,
2013-06-16 17:37:00,52.9,51.8,29.68,SE,134,0.0,1.0,96,0.01,-RA,FEW,0.40,51.0,WeatherDisplay:10.37,2013-06-16 21:37:00,
2013-06-16 17:42:00,52.9,51.8,29.68,SE,134,1.0,3.0,96,0.00,-RA,FEW,0.40,120.0,WeatherDisplay:10.37,2013-06-16 21:42:00,
2013-06-16 17:47:00,53.0,51.9,29.67,SE,129,1.0,4.0,96,0.00,-RA,FEW,0.40,135.0,WeatherDisplay:10.37,2013-06-16 21:47:00,
2013-06-16 17:52:00,53.1,52.0,29.67,SE,128,1.0,4.0,96,0.00,-RA,FEW,0.40,63.0,WeatherDisplay:10.37,2013-06-16 21:52:00,
2013-06-16 17:57:00,53.1,52.0,29.67,SE,128,0.0,3.0,96,0.00,-RA,FEW,0.40,28.0,WeatherDisplay:10.37,2013-06-16 21:57:00,
2013-06-16 18:07:00,53.2,52.0,29.67,SE,129,0.0,3.0,96,0.00,-RA,FEW,0.40,53.0,WeatherDisplay:10.37,2013-06-16 22:07:00,
2013-06-16 18:17:00,53.2,52.1,29.67,SE,129,0.0,1.0,96,0.00,-RA,FEW,0.40,46.0,WeatherDisplay:10.37,2013-06-16 22:17:00,
2013-06-16 18:22:00,53.2,52.1,29.67,SE,129,0.0,0.0,96,0.00,-RA,FEW,0.40,39.0,WeatherDisplay:10.37,2013-06-16 22:22:00,
2013-06-16 18:27:00,53.2,52.1,29.67,SE,129,0.0,3.0,96,0.00,-RA,FEW,0.40,32.0,WeatherDisplay:10.37,2013-06-16 22:27:00,
2013-06-16 18:32:00,53.2,52.1,29.67,SE,128,0.0,3.0,96,0.00,-RA,FEW,0.40,40.0,WeatherDisplay:10.37,2013-06-16 22:32:00,
2013-06-16 18:37:00,53.2,52.1,29.67,SE,127,0.0,4.0,96,0.00,-RA,FEW,0.40,32.0,WeatherDisplay:10.37,2013-06-16 22:37:00,
2013-06-16 18:42:00,53.2,52.1,29.67,ESE,117,1.0,3.0,96,0.00,-RA,FEW,0.40,21.0,WeatherDisplay:10.37,2013-06-16 22:42:00,
2013-06-16 18:47:00,53.2,52.1,29.67,ESE,108,2.0,4.0,96,0.00,-RA,FEW,0.40,14.0,WeatherDisplay:10.37,2013-06-16 22:47:00,
2013-06-16 18:52:00,53.2,52.1,29.67,ESE,104,1.0,4.0,96,0.00,-RA,FEW,0.40,19.0,WeatherDisplay:10.37,2013-06-16 22:52:00,
2013-06-16 18:57:00,53.1,51.7,29.67,ESE,103,0.0,3.0,95,0.00,-RA,FEW,0.40,14.0,WeatherDisplay:10.37,2013-06-16 22:57:00,
2013-06-16 19:07:00,53.2,52.1,29.67,East,100,1.0,4.0,96,0.00,-RA,FEW,0.40,11.0,WeatherDisplay:10.37,2013-06-16 23:07:00,
2013-06-16 19:17:00,53.1,52.0,29.67,East,97,1.0,4.0,96,0.02,RA,FEW,0.42,9.0,WeatherDisplay:10.37,2013-06-16 23:17:00,
2013-06-16 19:22:00,53.1,52.0,29.67,East,96,0.0,3.0,96,0.01,RA,FEW,0.43,18.0,WeatherDisplay:10.37,2013-06-16 23:22:00,
2013-06-16 19:27:00,53.1,52.0,29.66,East,97,1.0,3.0,96,0.00,RA,FEW,0.43,26.0,WeatherDisplay:10.37,2013-06-16 23:27:00,
2013-06-16 19:32:00,53.1,52.0,29.66,East,97,0.0,2.0,96,0.01,RA,FEW,0.44,21.0,WeatherDisplay:10.37,2013-06-16 23:32:00,
2013-06-16 19:37:00,53.1,52.0,29.66,East,97,0.0,0.0,96,0.00,RA,FEW,0.44,11.0,WeatherDisplay:10.37,2013-06-16 23:37:00,
2013-06-16 19:42:00,53.1,52.0,29.66,East,97,0.0,1.0,96,0.00,OVC,FEW,0.44,11.0,WeatherDisplay:10.37,2013-06-16 23:42:00,
2013-06-16 19:47:00,53.1,52.0,29.66,East,97,0.0,1.0,96,0.00,OVC,FEW,0.44,5.0,WeatherDisplay:10.37,2013-06-16 23:47:00,
2013-06-16 19:52:00,53.2,52.0,29.66,East,97,0.0,0.0,96,0.00,OVC,FEW,0.44,5.0,WeatherDisplay:10.37,2013-06-16 23:52:00,
2013-06-16 19:57:00,53.1,52.0,29.66,East,97,0.0,1.0,96,0.00,OVC,FEW,0.44,0.0,WeatherDisplay:10.37,2013-06-16 23:57:00,
2013-06-16 20:07:00,53.1,52.0,29.66,East,97,0.0,1.0,96,0.01,-RA,FEW,0.45,0.0,WeatherDisplay:10.37,2013-06-17 00:07:00,
2013-06-16 20:17:00,53.1,52.0,29.66,East,97,0.0,1.0,96,0.00,-RA,FEW,0.45,0.0,WeatherDisplay:10.37,2013-06-17 00:17:00,
2013-06-16 20:22:00,53.0,52.2,29.66,East,97,0.0,0.0,97,0.00,-RA,FEW,0.45,0.0,WeatherDisplay:10.37,2013-06-17 00:22:00,
2013-06-16 20:27:00,53.0,52.2,29.66,East,97,0.0,0.0,97,0.00,-RA,FEW,0.45,0.0,WeatherDisplay:10.37,2013-06-17 00:27:00,
2013-06-16 20:32:00,53.0,52.2,29.66,East,97,0.0,0.0,97,0.00,OVC,FEW,0.45,0.0,WeatherDisplay:10.37,2013-06-17 00:32:00,
2013-06-16 20:37:00,53.0,52.2,29.66,East,97,0.0,0.0,97,0.00,OVC,FEW,0.45,0.0,WeatherDisplay:10.37,2013-06-17 00:37:00,
2013-06-16 20:42:00,53.1,52.3,29.66,East,97,0.0,0.0,97,0.00,OVC,FEW,0.45,0.0,WeatherDisplay:10.37,2013-06-17 00:42:00,
2013-06-16 20:47:00,53.1,52.3,29.66,East,97,0.0,0.0,97,0.00,OVC,FEW,0.45,0.0,WeatherDisplay:10.37,2013-06-17 00:47:00,
2013-06-16 20:52:00,53.1,52.3,29.66,East,97,0.0,0.0,97,0.00,OVC,FEW,0.45,0.0,WeatherDisplay:10.37,2013-06-17 00:52:00,
2013-06-16 20:57:00,53.2,52.4,29.66,East,97,0.0,0.0,97,0.00,OVC,FEW,0.45,0.0,WeatherDisplay:10.37,2013-06-17 00:57:00,
2013-06-16 21:07:00,53.2,52.4,29.66,East,97,0.0,0.0,97,0.01,RA,FEW,0.46,0.0,WeatherDisplay:10.37,2013-06-17 01:07:00,
2013-06-16 21:17:00,53.2,52.4,29.67,East,97,0.0,0.0,97,0.00,OVC,FEW,0.46,0.0,WeatherDisplay:10.37,2013-06-17 01:17:00,
2013-06-16 21:22:00,53.2,52.4,29.67,East,97,0.0,0.0,97,0.00,OVC,FEW,0.46,0.0,WeatherDisplay:10.37,2013-06-17 01:22:00,
2013-06-16 21:27:00,53.2,52.4,29.67,East,97,0.0,0.0,97,0.00,OVC,FEW,0.46,0.0,WeatherDisplay:10.37,2013-06-17 01:27:00,
2013-06-16 21:32:00,53.2,52.4,29.67,East,97,0.0,0.0,97,0.00,OVC,FEW,0.46,0.0,WeatherDisplay:10.37,2013-06-17 01:32:00,
2013-06-16 21:37:00,53.2,52.4,29.67,East,97,0.0,0.0,97,0.00,OVC,FEW,0.46,0.0,WeatherDisplay:10.37,2013-06-17 01:37:00,
2013-06-16 21:42:00,53.3,52.5,29.68,East,97,0.0,0.0,97,0.00,OVC,FEW,0.46,0.0,WeatherDisplay:10.37,2013-06-17 01:42:00,
2013-06-16 21:47:00,53.3,52.5,29.68,East,97,0.0,0.0,97,0.00,OVC,FEW,0.46,0.0,WeatherDisplay:10.37,2013-06-17 01:47:00,
2013-06-16 21:52:00,53.4,52.6,29.68,East,97,0.0,0.0,97,0.00,OVC,FEW,0.46,0.0,WeatherDisplay:10.37,2013-06-17 01:52:00,
2013-06-16 21:57:00,53.4,52.6,29.68,East,97,0.0,0.0,97,0.00,OVC,FEW,0.46,0.0,WeatherDisplay:10.37,2013-06-17 01:57:00,
2013-06-16 22:07:00,53.6,52.8,29.68,East,97,0.0,0.0,97,0.00,OVC,FEW,0.46,0.0,WeatherDisplay:10.37,2013-06-17 02:07:00,
2013-06-16 22:17:00,53.6,52.8,29.68,ESE,102,0.0,2.0,97,0.00,OVC,FEW,0.46,0.0,WeatherDisplay:10.37,2013-06-17 02:17:00,
2013-06-16 22:22:00,53.7,52.9,29.68,ESE,111,0.0,0.0,97,0.00,OVC,FEW,0.46,0.0,WeatherDisplay:10.37,2013-06-17 02:22:00,
2013-06-16 22:27:00,53.7,52.9,29.68,ESE,111,0.0,1.0,97,0.00,OVC,FEW,0.46,0.0,WeatherDisplay:10.37,2013-06-17 02:27:00,
2013-06-16 22:32:00,53.8,53.0,29.68,ESE,111,0.0,0.0,97,0.00,OVC,FEW,0.46,0.0,WeatherDisplay:10.37,2013-06-17 02:32:00,
2013-06-16 22:37:00,53.8,53.0,29.68,ESE,111,0.0,0.0,97,0.00,OVC,FEW,0.46,0.0,WeatherDisplay:10.37,2013-06-17 02:37:00,
2013-06-16 22:42:00,53.9,53.1,29.68,ESE,112,0.0,3.0,97,0.00,OVC,FEW,0.46,0.0,WeatherDisplay:10.37,2013-06-17 02:42:00,
2013-06-16 22:47:00,53.9,53.1,29.68,ESE,114,0.0,0.0,97,0.00,OVC,FEW,0.46,0.0,WeatherDisplay:10.37,2013-06-17 02:47:00,
2013-06-16 22:52:00,54.0,53.2,29.68,ESE,114,0.0,1.0,97,0.00,OVC,FEW,0.46,0.0,WeatherDisplay:10.37,2013-06-17 02:52:00,
2013-06-16 22:57:00,54.1,53.3,29.68,ESE,114,0.0,0.0,97,0.00,OVC,FEW,0.46,0.0,WeatherDisplay:10.37,2013-06-17 02:57:00,
2013-06-16 23:07:00,54.1,54.1,29.68,ESE,114,0.0,3.0,100,0.00,OVC,FEW,0.46,0.0,WeatherDisplay:10.37,2013-06-17 03:07:00,
2013-06-16 23:17:00,54.3,54.3,29.68,SE,132,0.0,3.0,100,0.01,RA,FEW,0.47,0.0,WeatherDisplay:10.37,2013-06-17 03:17:00,
2013-06-16 23:22:00,54.4,54.4,29.68,SE,136,0.0,1.0,100,0.00,RA,FEW,0.47,0.0,WeatherDisplay:10.37,2013-06-17 03:22:00,
2013-06-16 23:27:00,54.5,54.5,29.68,ESE,114,1.0,3.0,100,0.00,OVC,FEW,0.47,0.0,WeatherDisplay:10.37,2013-06-17 03:27:00,
2013-06-16 23:32:00,54.5,54.5,29.68,ESE,114,0.0,3.0,100,0.01,RA,FEW,0.48,0.0,WeatherDisplay:10.37,2013-06-17 03:32:00,
2013-06-16 23:37:00,54.5,54.5,29.68,SE,143,0.0,2.0,100,0.00,RA,FEW,0.48,0.0,WeatherDisplay:10.37,2013-06-17 03:37:00,
2013-06-16 23:42:00,54.6,54.6,29.68,SSE,164,0.0,1.0,100,0.00,OVC,FEW,0.48,0.0,WeatherDisplay:10.37,2013-06-17 03:42:00,
2013-06-16 23:47:00,54.6,54.6,29.69,NNW,336,0.0,4.0,100,0.00,OVC,FEW,0.48,0.0,WeatherDisplay:10.37,2013-06-17 03:47:00,
2013-06-16 23:52:00,54.7,54.7,29.69,NNW,328,1.0,3.0,100,0.00,OVC,FEW,0.48,0.0,WeatherDisplay:10.37,2013-06-17 03:52:00,
2013-06-16 23:57:00,54.7,54.7,29.69,SSW,200,1.0,5.0,100,0.00,OVC,FEW,0.48,0.0,WeatherDisplay:10.37,2013-06-17 03:57:00,